Regional Weather Roundup
Issued by NWS State College, PA

Home | Current Version | Previous Version | Graphics & Text | Print | Product List | Glossary On
Versions: 1 2 3 4 5 6 7 8 9 10 11 12 13 14 15 16 17 18 19 20 21 22 23 24 25 26 27 28 29 30 31 32 33 34 35 36 37 38 39 40 41 42 43 44 45 46 47 48 49 50
000
ASUS41 KCTP 292210
RWRCTP

REGIONAL WEATHER ROUNDUP
NATIONAL WEATHER SERVICE STATE COLLEGE PA
600 PM EDT MON JUN 29 2015

Note: "fair" indicates few or no clouds below 12,000 feet with no
significant weather and/or obstructions to visibility.

* = STATION THAT DOES NOT REPORT PRECIPITATION /E.G. RAIN...SNOW...ETC/
    THUNDER OR FOG.

PAZ002>004-007>009-013>016-020>023-029>032-292300-
WESTERN PENNSYLVANIA

CITY           SKY/WX    TMP DP  RH WIND       PRES   REMARKS
ERIE           CLOUDY    74  52  46 CALM      29.89S
MEADVILLE      CLOUDY    69  53  56 CALM      29.91F
FRANKLIN*      CLOUDY    68  57  68 E3        29.94S
NEW CASTLE     FAIR      68  62  80 CALM      29.93R
BEAVER COUNTY  LGT RAIN  64  61  88 CALM      29.92S
BUTLER*        CLOUDY    64  61  88 CALM      29.94S
PITTSBURGH INT CLOUDY    68  60  75 NE3       29.91F
PITTSBURGH     CLOUDY    67  59  75 N3        29.89F
INDIANA*       PTSUNNY   72  59  64 CALM      29.96S
LATROBE        CLOUDY    70  63  78 CALM      29.92F
WASHINGTON CO* NOT AVBL
$$

PAZ004>006-010>012-017>019-024>028-033>037-041-042-045-046-049>053-292300-
CENTRAL PENNSYLVANIA

CITY           SKY/WX    TMP DP  RH WIND       PRES   REMARKS
BRADFORD       LGT RAIN  62  56  80 CALM      29.96S
DUBOIS           N/A     70  58  65 CALM      29.94F
CLEARFIELD     CLOUDY    67  57  70 E5        29.94S
JOHNSTOWN      CLOUDY    69  55  60 NE3       29.95F
ALTOONA        CLOUDY    73  57  57 S5        29.94S
STATE COLLEGE  MOSUNNY   73  59  60 SW6       29.92S
WILLIAMSPORT   CLOUDY    76  57  51 SW3       29.88R
SELINSGROVE    MOSUNNY   79  60  52 VRB3      29.90S
FT INDIANTOWN  MOSUNNY   79  59  50 VRB7      29.91S
CAPITAL CITY   SUNNY     78  57  48 SW10      29.90F
HARRISBURG     MOSUNNY   80  57  45 SW8       29.90S
YORK           MOSUNNY   79  58  48 VRB7      29.92S
$$

PAZ038>040-043-044-047-048-054-055-060>062-067>071-292300-
EASTERN PENNSYLVANIA

CITY           SKY/WX    TMP DP  RH WIND       PRES   REMARKS
SCRANTON       MOSUNNY   77  55  46 W8        29.90S
MOUNT POCONO   MOSUNNY   71  54  54 W9        29.95S
ALLENTOWN      SUNNY     78  57  48 W12       29.91S
QUAKERTOWN*    CLEAR     75  59  57 SW7       29.93S
READING        MOSUNNY   78  56  46 W6        29.90S
LANCASTER      MOSUNNY   77  57  50 SW7       29.91F
COATESVILLE    CLEAR     75  57  53 SW3       29.95S
POTTSTOWN      SUNNY     77  57  50 VRB6      29.93F
BLUE BELL      SUNNY     79  59  50 W6        29.92S
DOYLESTOWN     SUNNY     76  54  46 SW6       29.91F
WILLOW GROVE   NOT AVBL
NORTH PHILA    MOSUNNY   80  53  39 W7        29.93S
PHILADELPHIA   MOSUNNY   81  53  37 W6        29.92F
$$


USA.gov is the U.S. government's official web portal to all federal, state and local government web resources and services.